Temperature
8 6 6 6 7 8 7 7 7 7 8 8 7 6 6 6 6 6 6 6 6 6 6 6 6 6 6 6 6 6 6 6 6 6 6 6 6 6 6 6 6 6 6 6
6 6 7 8 8 8 7 7 6 7 7 7 6 6 6 6 6 6 5 5 5 5 5 5 5 5 5 5 5 5 5 5 5 5 5 5 5 5 5 5 5 5 5 5
6 7 8 8 7 7 6 6 6 6 6 6 6 5 5 5 5 5 5 5 5 5 5 5 5 5 5 5 5 5 5 5 5 5 5 5 5 5 5 5 5 5 5 5
6 6 7 7 6 6 6 6 6 6 5 4 5 4 4 4 4 4 4 4 4 4 5 4 4 4 4 4 4 4 4 4 4 4 4 4 4 4 4 4 4 4 4 4
5 6 6 6 6 6 5 6 6 5 5 4 4 4 4 3 4 3 3 4 4 4 4 4 4 4 4 4 4 4 4 4 4 3 3 3 3 3 3 3 3 3 3 3
5 6 6 6 6 6 5 5 4 3 3 3 4 3 4 3 4 3 3 3 3 3 4 4 3 3 3 3 3 3 3 3 3 3 3 3 3 3 3 3 3 3 3 3
5 5 5 6 5 5 4 3 3 3 2 3 3 3 3 3 3 3 3 3 3 3 3 3 3 3 3 3 3 3 3 3 2 2 2 2 2 2 2 2 2 2 2 2
4 4 5 5 5 4 4 3 3 3 3 2 3 3 3 3 3 4 4 3 3 3 3 3 2 2 2 2 2 2 2 2 2 2 2 2 2 2 2 1 1 2 2 2
3 4 4 5 5 4 4 3 3 2 1 2 2 2 3 3 3 2 2 2 2 2 2 2 2 2 2 1 2 1 1 1 1 1 1 1 1 1 1 1 1 1 1 1
3 3 3 4 4 4 4 3 1 1 2 2 2 2 3 2 2 1 1 1 2 2 2 2 2 1 1 1 1 1 1 1 1 1 1 1 1 0 0 0 0 0 1 1
3 2 2 3 3 3 3 3 2 0 1 2 2 3 3 2 2 1 1 1 1 1 1 1 1 1 1 1 0 0 0 0 0 0 0 0 -0 -0 -0 -0 -0 -0 0 0
2 1 1 2 2 3 3 2 1 1 1 0 1 2 3 2 2 1 1 1 1 1 1 1 1 0 0 -0 -0 -0 -0 -0 -0 -0 -0 -1 -1 -1 -1 -0 -0 -0 -0 -0
1 0 1 2 2 2 2 2 1 0 -0 -1 0 2 2 1 1 1 1 1 1 1 1 0 -0 -0 -0 -1 -1 -1 -1 -1 -1 -1 -1 -1 -1 -1 -1 -1 -1 -1 -1 -1
1 -1 1 2 2 1 1 1 0 -0 -0 -0 0 1 2 1 0 0 1 1 0 0 0 -0 -0 -1 -1 -1 -1 -1 -1 -1 -1 -2 -2 -2 -2 -2 -2 -2 -1 -1 -1 -1
0 -0 -1 -0 0 0 0 0 -0 -0 -0 0 1 0 1 0 -0 0 0 0 -0 -1 -1 -1 -1 -1 -1 -2 -2 -2 -2 -2 -2 -2 -2 -2 -2 -2 -2 -2 -2 -2 -2 -1
-2 -1 -1 -1 -0 -1 -0 -0 -0 -0 -0 -1 -0 0 0 0 0 -0 -0 -0 -1 -1 -1 -1 -1 -2 -2 -2 -2 -2 -2 -3 -3 -3 -3 -3 -3 -3 -3 -2 -2 -2 -2 -2
-2 -2 -1 -1 -2 -1 -0 -1 -1 -1 -1 -1 -0 0 -1 -1 -1 -1 -1 -1 -1 -1 -2 -2 -2 -2 -2 -2 -3 -3 -3 -3 -3 -3 -3 -3 -3 -3 -3 -3 -3 -3 -2 -2
-3 -3 -3 -2 -2 -0 1 -1 -1 -1 -1 -2 -2 -2 -1 -1 -1 -1 -1 -1 -1 -2 -2 -2 -2 -2 -2 -3 -3 -3 -3 -3 -4 -4 -4 -4 -4 -4 -4 -3 -3 -3 -3 -3
-3 -3 -3 -3 -2 -1 -0 -1 -2 -2 -2 -2 -2 -2 -2 -2 -2 -2 -1 -1 -2 -2 -2 -2 -3 -3 -3 -3 -3 -3 -4 -4 -4 -4 -4 -4 -4 -4 -4 -4 -4 -4 -4 -3
-3 -3 -3 -3 -2 -1 1 -1 -2 -2 -1 -2 -2 -3 -3 -3 -3 -3 -1 -2 -2 -2 -3 -3 -3 -3 -3 -3 -4 -4 -4 -4 -4 -4 -4 -4 -5 -5 -4 -4 -4 -4 -4 -4
-3 -3 -3 -3 -2 -2 -1 -2 -2 -1 -1 -1 -2 -2 -3 -3 -3 -2 -2 -2 -3 -3 -3 -3 -3 -4 -4 -4 -4 -4 -4 -4 -4 -4 -4 -5 -5 -5 -5 -5 -4 -4 -4 -4
-3 -3 -3 -3 -3 -1 -2 -3 -2 -1 -1 -1 -1 -2 -2 -2 -2 -2 -3 -3 -3 -3 -4 -4 -4 -4 -4 -4 -4 -5 -5 -5 -5 -5 -5 -5 -5 -5 -5 -5 -5 -5 -5 -5
-4 -3 -4 -3 -2 -2 -2 -1 -1 -1 -1 -1 -1 -2 -2 -3 -3 -3 -3 -3 -4 -4 -4 -4 -4 -4 -4 -5 -5 -5 -5 -5 -5 -5 -5 -5 -5 -5 -5 -5 -5 -5 -5 -5
-4 -4 -4 -4 -4 -2 -2 -1 -1 -1 -1 -2 -2 -2 -3 -3 -3 -4 -4 -4 -4 -4 -4 -5 -5 -5 -5 -5 -5 -5 -5 -5 -5 -5 -5 -5 -5 -5 -5 -5 -5 -5 -5 -5
-4 -5 -5 -4 -4 -3 -2 -1 -1 -2 -2 -2 -3 -3 -3 -3 -4 -4 -4 -4 -5 -5 -5 -5 -5 -5 -5 -5 -5 -5 -5 -5 -5 -5 -5 -6 -6 -6 -6 -6 -6 -6 -6 -6
-5 -5 -4 -3 -2 -3 -2 -1 -2 -2 -3 -3 -3 -3 -4 -4 -4 -4 -5 -5 -5 -5 -5 -5 -5 -5 -6 -6 -6 -6 -6 -6 -6 -6 -6 -6 -6 -6 -6 -6 -6 -6 -6 -6
Wind_Speed
3 4 2 4 5 4 3 2 4 5 3 2 6 7 7 3 3 4 4 3 3 3 2 1 2 3 3 3 3 3 3 3 2 2 2 2 2 2 3 4 6 6 6 6
4 1 4 3 1 1 2 2 3 4 4 2 5 7 5 3 4 5 6 5 4 2 2 2 2 2 2 2 3 3 2 2 2 1 1 1 1 1 1 4 5 6 6 6
4 4 2 1 1 1 1 3 4 4 5 3 2 5 4 1 1 2 3 4 3 3 3 2 1 2 2 2 1 2 2 2 2 2 2 2 2 2 3 3 3 5 5 6
0 2 0 1 1 2 3 3 3 2 1 4 0 4 5 3 2 2 3 2 2 2 2 2 2 1 0 0 1 1 1 1 2 2 1 1 1 1 2 2 2 4 5 4
1 1 1 1 2 2 4 2 2 2 1 2 2 3 6 1 3 5 4 4 3 2 2 2 2 2 1 0 0 1 1 1 2 1 1 1 1 1 2 2 3 3 4 4
1 1 0 1 1 1 0 3 3 3 3 3 5 4 6 4 5 4 4 4 4 3 2 1 1 1 0 1 1 1 1 1 1 1 1 1 1 1 2 3 3 3 3 3
3 3 2 1 2 2 3 4 3 4 2 5 3 4 7 5 4 4 5 5 4 3 3 2 1 1 0 1 1 1 1 2 2 2 2 1 1 1 1 2 2 3 3 2
0 4 2 0 2 2 2 5 5 3 4 5 3 5 5 4 2 1 3 4 3 2 2 2 2 1 1 1 1 1 1 2 2 2 2 2 2 1 2 2 2 3 3 3
3 3 2 1 0 3 3 2 3 3 1 3 5 5 5 1 1 2 1 2 2 2 1 1 1 1 1 1 1 1 1 2 2 2 2 2 2 2 2 3 3 3 3 3
3 2 3 2 2 2 2 4 4 3 2 4 6 5 4 4 4 2 2 2 2 1 1 1 1 1 1 1 1 1 1 2 3 3 2 3 3 3 3 3 3 4 4 4
2 2 2 2 2 3 2 2 3 2 3 3 4 6 4 5 5 5 5 4 3 2 2 2 2 1 1 1 1 2 2 2 3 3 3 3 3 3 3 3 4 4 4 4
2 3 2 5 3 1 3 4 5 3 4 4 3 7 3 3 3 3 3 3 2 2 2 2 1 1 1 2 2 2 2 3 3 3 3 3 3 3 3 4 4 4 4 4
3 4 1 4 3 2 1 3 3 3 3 4 4 7 2 1 1 1 2 2 2 2 2 1 1 1 2 2 2 3 3 3 3 3 3 3 3 3 3 4 4 4 3 3
4 4 6 7 6 3 4 4 4 4 4 5 8 9 7 5 4 4 3 2 2 2 2 2 2 2 2 2 3 3 3 3 3 3 2 3 3 3 4 4 3 3 3 3
4 3 4 5 5 3 5 6 6 7 8 8 8 9 11 8 6 5 3 3 2 2 2 3 3 2 2 3 3 3 4 4 3 3 3 3 4 3 3 3 3 3 3 2
3 3 1 3 3 3 6 8 8 8 7 9 9 11 8 5 3 3 3 4 4 4 3 3 3 3 3 3 3 4 4 4 3 3 3 4 3 3 3 3 3 3 2 2
3 4 2 3 4 4 7 8 9 6 6 7 10 10 5 4 4 5 5 4 4 4 4 4 4 4 4 4 3 4 4 3 3 3 4 3 3 3 3 3 2 2 2 2
6 4 2 1 2 5 7 2 5 6 6 7 7 6 5 5 4 4 4 4 4 4 4 4 4 4 3 3 3 3 3 2 3 3 4 3 3 3 3 2 2 2 2 2
4 5 3 2 3 8 7 3 3 4 6 6 8 7 5 3 4 4 2 3 4 4 4 4 3 3 3 3 3 2 3 2 3 4 4 4 3 3 3 3 3 3 2 3
2 3 4 3 3 7 6 2 1 2 5 4 4 5 3 2 3 5 3 3 3 3 2 3 3 2 3 3 2 2 3 3 4 5 4 4 3 3 3 3 3 2 2 2
2 2 4 5 6 8 5 2 2 2 6 3 2 3 2 3 5 5 4 3 3 3 3 3 2 3 3 3 2 3 4 5 5 5 4 3 3 3 3 2 2 2 2 2
6 5 5 5 5 8 3 3 4 6 3 1 2 2 3 5 5 4 4 4 4 4 4 3 2 4 4 3 2 4 5 5 4 4 3 3 3 3 2 2 2 1 1 1
6 7 5 7 7 5 4 5 4 2 2 3 3 3 3 4 5 5 4 4 4 4 4 3 3 4 4 3 3 4 5 4 4 3 3 3 3 2 2 2 1 1 1 1
3 2 4 5 8 6 5 5 3 3 3 4 3 3 3 4 5 5 5 5 4 4 4 3 3 4 5 4 4 4 4 4 3 4 3 3 2 2 2 2 2 1 2 2
5 4 3 5 7 5 5 5 5 3 3 3 3 3 3 4 5 4 5 5 5 4 4 3 4 4 5 5 5 4 4 3 3 3 3 2 2 2 2 2 2 2 3 3
4 6 6 6 5 4 6 5 3 3 4 3 3 3 3 3 4 4 5 4 4 4 4 4 4 4 4 4 5 4 4 3 3 3 2 2 2 2 2 2 2 3 3 4
Wind_Direction
50 79 168 217 209 207 195 217 264 267 273 266 254 265 258 239 203 198 197 188 176 189 177 123 105 90 78 62 57 48 42 27 35 35 27 23 4 357 358 7 17 18 16 18
53 261 242 232 206 143 159 235 275 295 318 294 272 275 263 237 214 206 198 196 186 166 134 110 104 83 77 64 50 48 43 33 39 28 350 339 325 322 343 358 8 14 16 14
173 232 255 143 85 114 264 212 239 273 318 319 306 300 280 264 171 171 181 182 183 173 165 151 109 83 70 50 37 32 21 29 29 31 28 19 18 3 9 1 354 359 11 13
229 276 147 123 225 169 246 244 241 268 321 292 225 277 274 247 250 223 206 186 182 170 149 147 126 110 103 312 355 26 23 23 15 27 51 48 27 357 325 319 326 341 359 2
285 288 160 198 248 207 220 262 270 264 209 298 273 228 279 255 246 243 227 207 196 179 156 156 159 174 186 272 1 359 25 16 14 17 37 57 10 334 329 334 334 334 347 349
278 300 171 206 291 210 122 38 30 46 82 267 236 198 272 237 232 234 219 209 202 187 172 160 147 143 85 24 12 14 31 355 359 6 9 21 355 339 346 340 332 323 322 331
332 313 326 60 47 16 70 85 29 354 337 253 249 211 252 263 249 206 199 200 201 187 175 172 148 127 49 12 352 355 11 338 333 347 348 335 314 298 291 303 309 309 309 311
186 284 269 212 176 193 184 142 157 208 239 282 295 235 258 283 275 164 163 169 169 175 180 189 188 185 195 285 322 330 329 325 326 330 320 316 304 287 284 285 289 293 293 292
179 256 321 319 202 152 142 168 169 143 202 270 268 282 298 312 27 75 116 139 166 188 201 203 200 198 213 256 280 289 306 322 322 315 313 307 305 303 293 297 298 297 299 307
155 231 293 324 49 29 135 140 106 128 185 264 285 268 250 246 241 234 219 217 245 249 233 235 233 247 253 246 267 296 301 301 310 306 299 310 302 298 291 293 298 300 301 305
122 157 304 341 211 210 137 133 132 146 176 189 271 270 234 215 216 210 222 221 219 230 232 228 245 258 270 278 272 290 309 317 312 304 299 302 300 304 305 296 292 291 294 299
133 128 240 260 274 242 187 179 154 170 236 204 228 269 278 223 230 199 217 237 240 235 249 254 250 265 279 295 300 296 299 304 300 297 298 295 299 309 308 303 302 300 296 299
136 123 35 335 326 339 253 203 172 147 149 190 213 264 313 341 321 247 218 238 262 264 270 271 271 271 281 294 299 299 301 300 304 307 307 310 308 306 303 304 304 304 300 300
119 145 183 209 233 212 243 239 195 162 195 226 233 258 283 285 278 286 274 254 251 267 262 266 277 285 288 292 296 304 313 313 314 313 308 306 301 296 298 301 303 301 294 290
108 182 223 251 266 241 241 241 216 209 210 220 249 254 266 259 253 258 254 253 263 274 283 285 280 283 294 307 311 312 314 314 309 310 309 299 299 301 305 307 306 310 303 300
98 161 191 286 283 266 267 253 232 232 233 241 263 272 271 268 254 254 257 250 257 263 273 282 284 285 290 294 298 303 302 302 304 305 304 305 309 312 307 305 309 318 323 323
146 140 151 263 317 345 274 239 213 221 222 212 237 253 280 286 262 251 246 242 247 256 268 275 278 272 277 282 283 283 288 295 310 310 306 307 309 307 307 313 324 320 313 316
146 140 154 239 25 256 249 233 208 219 244 226 245 270 274 265 279 263 242 226 249 263 266 274 283 288 285 284 288 293 299 301 305 305 304 305 306 305 307 308 310 307 308 304
157 151 150 162 247 276 287 260 187 203 265 235 241 268 290 322 334 302 260 252 249 256 263 270 275 282 290 287 282 296 300 300 299 297 295 295 292 291 294 292 293 295 301 303
94 128 148 168 213 247 258 263 185 115 280 257 223 245 275 354 307 283 293 303 295 290 283 288 290 295 294 292 290 290 286 289 287 288 285 286 284 280 278 280 285 295 291 294
152 165 192 202 231 261 258 239 114 166 264 287 225 234 222 238 252 277 297 301 296 299 298 295 295 295 292 291 291 285 281 280 286 291 288 289 286 282 275 282 288 294 304 310
178 179 195 181 218 254 215 135 188 238 285 272 252 246 243 263 283 291 293 293 299 305 306 300 296 297 295 288 277 279 283 287 294 293 288 286 283 284 294 288 291 298 299 301
199 191 188 198 221 261 198 211 246 246 257 261 255 263 256 268 277 286 290 288 291 292 296 299 286 294 296 288 271 273 287 299 296 290 283 280 281 279 283 269 272 284 282 283
250 203 192 245 261 260 253 257 269 244 253 265 259 257 247 259 269 280 285 290 292 293 291 295 290 289 293 295 287 274 284 294 293 279 276 275 272 277 285 282 270 263 260 266
223 183 205 250 272 291 270 253 256 264 280 286 289 265 249 257 269 269 277 284 285 290 292 289 280 281 285 295 295 291 286 289 292 278 271 275 267 261 265 271 267 270 257 256
204 187 194 233 242 232 269 270 246 253 269 273 282 288 280 257 266 275 276 278 281 285 289 291 286 283 285 289 292 294 289 279 275 278 273 264 263 263 267 278 304 306 300 298
Height
1509 1513 1516 1515 1514 1514 1516 1518 1518 1515 1512 1513 1513 1512 1510 1509 1509 1510 1511 1511 1510 1511 1512 1512 1511 1511 1511 1510 1510 1509 1509 1508 1507 1507 1506 1505 1504 1504 1503 1502 1501 1501 1500 1499
1513 1515 1513 1512 1512 1513 1515 1517 1518 1515 1512 1513 1512 1511 1509 1508 1508 1508 1508 1509 1509 1509 1509 1510 1510 1509 1509 1508 1507 1507 1507 1506 1506 1505 1504 1504 1503 1502 1501 1501 1500 1499 1498 1497
1513 1513 1510 1511 1512 1514 1516 1518 1518 1517 1514 1512 1514 1513 1509 1507 1507 1507 1507 1507 1508 1508 1507 1508 1507 1507 1507 1506 1506 1505 1505 1504 1504 1503 1503 1502 1501 1500 1499 1498 1497 1497 1496 1495
1513 1511 1511 1512 1513 1513 1516 1514 1515 1515 1519 1521 1518 1520 1511 1508 1507 1506 1506 1506 1506 1507 1506 1506 1506 1505 1505 1505 1505 1504 1503 1503 1502 1501 1501 1499 1498 1497 1496 1496 1495 1495 1494 1493
1514 1512 1511 1512 1512 1512 1514 1513 1514 1515 1519 1523 1520 1522 1513 1509 1507 1505 1504 1504 1505 1505 1505 1505 1504 1504 1504 1504 1503 1502 1502 1501 1500 1500 1499 1498 1497 1496 1495 1494 1493 1492 1491 1490
1513 1512 1511 1511 1512 1512 1513 1515 1517 1521 1524 1527 1520 1523 1514 1509 1504 1502 1502 1502 1503 1503 1503 1503 1503 1503 1502 1502 1501 1500 1499 1499 1498 1497 1497 1496 1495 1494 1493 1492 1491 1490 1489 1488
1516 1513 1512 1512 1513 1513 1515 1522 1530 1529 1533 1526 1517 1517 1511 1502 1500 1499 1499 1499 1500 1501 1501 1501 1501 1501 1500 1500 1499 1498 1497 1496 1496 1495 1494 1493 1492 1491 1490 1489 1488 1487 1486 1485
1519 1519 1513 1512 1513 1514 1516 1519 1528 1530 1532 1525 1517 1515 1507 1501 1498 1497 1497 1498 1499 1499 1500 1500 1499 1499 1498 1498 1497 1496 1495 1494 1493 1492 1491 1491 1490 1488 1487 1487 1486 1484 1483 1482
1520 1518 1513 1512 1512 1513 1516 1520 1521 1528 1532 1531 1520 1514 1505 1500 1499 1498 1497 1497 1497 1498 1498 1498 1498 1497 1496 1496 1495 1494 1493 1492 1491 1489 1488 1487 1487 1485 1484 1484 1483 1482 1481 1480
1516 1521 1515 1513 1512 1513 1514 1517 1525 1529 1529 1526 1519 1514 1507 1502 1500 1499 1498 1497 1496 1496 1497 1496 1496 1495 1494 1494 1493 1492 1491 1489 1488 1487 1486 1484 1483 1482 1481 1481 1480 1478 1477 1476
1515 1521 1520 1517 1516 1516 1517 1519 1521 1527 1528 1527 1526 1512 1498 1497 1496 1496 1496 1495 1495 1495 1494 1494 1494 1493 1492 1491 1490 1489 1488 1486 1485 1484 1482 1481 1480 1479 1478 1477 1476 1475 1474 1473
1515 1521 1525 1519 1514 1513 1513 1515 1520 1524 1526 1527 1526 1512 1494 1494 1493 1494 1494 1494 1494 1493 1493 1492 1491 1491 1490 1489 1487 1486 1485 1483 1482 1480 1479 1478 1477 1476 1475 1474 1473 1472 1471 1470
1514 1521 1526 1520 1520 1517 1515 1514 1516 1521 1526 1528 1525 1509 1494 1493 1493 1493 1493 1492 1492 1491 1491 1490 1489 1488 1487 1486 1485 1483 1481 1480 1479 1477 1476 1474 1473 1472 1471 1470 1469 1469 1468 1467
1511 1519 1521 1519 1513 1514 1515 1513 1515 1518 1523 1521 1514 1503 1496 1494 1493 1492 1492 1491 1490 1490 1489 1488 1487 1486 1485 1483 1482 1480 1478 1477 1475 1474 1473 1471 1470 1469 1468 1467 1466 1465 1464 1464
1511 1517 1518 1515 1512 1513 1512 1511 1511 1513 1512 1512 1504 1501 1493 1492 1491 1490 1489 1489 1488 1487 1487 1485 1484 1483 1482 1481 1479 1477 1476 1474 1473 1471 1470 1468 1467 1466 1465 1464 1463 1462 1462 1461
1512 1517 1518 1516 1512 1512 1511 1507 1507 1507 1506 1505 1502 1497 1489 1489 1489 1488 1487 1486 1486 1485 1484 1483 1482 1481 1479 1478 1476 1474 1473 1471 1470 1468 1467 1465 1464 1463 1462 1461 1460 1459 1459 1458
1514 1517 1518 1516 1516 1511 1508 1501 1501 1501 1499 1499 1497 1491 1487 1487 1486 1485 1484 1484 1483 1482 1481 1480 1479 1478 1476 1475 1473 1471 1470 1469 1467 1466 1464 1463 1461 1460 1459 1458 1457 1457 1456 1456
1513 1516 1520 1521 1518 1514 1497 1494 1494 1494 1493 1492 1490 1487 1485 1484 1483 1483 1482 1481 1480 1480 1478 1477 1476 1474 1473 1472 1470 1469 1467 1466 1464 1463 1461 1460 1459 1458 1456 1456 1455 1454 1454 1453
1509 1513 1519 1521 1519 1509 1496 1492 1493 1494 1491 1487 1486 1484 1483 1483 1481 1480 1480 1479 1478 1477 1476 1474 1473 1471 1470 1468 1467 1466 1464 1463 1461 1460 1458 1457 1456 1455 1454 1453 1453 1452 1451 1451
1509 1511 1516 1518 1515 1507 1491 1489 1488 1491 1490 1482 1482 1482 1482 1482 1483 1479 1477 1477 1476 1474 1473 1471 1470 1468 1466 1465 1464 1462 1461 1460 1458 1457 1456 1454 1453 1453 1452 1451 1450 1450 1449 1449
1511 1512 1513 1514 1513 1500 1490 1488 1489 1493 1486 1480 1479 1479 1480 1480 1479 1477 1475 1474 1473 1471 1470 1468 1467 1465 1463 1462 1461 1459 1458 1456 1455 1454 1453 1452 1451 1450 1449 1449 1448 1448 1447 1447
1504 1508 1510 1511 1510 1497 1486 1487 1488 1484 1480 1478 1478 1477 1477 1476 1475 1473 1472 1471 1470 1468 1467 1465 1463 1462 1460 1459 1457 1456 1454 1453 1452 1451 1450 1449 1448 1448 1447 1446 1446 1445 1445 1444
1500 1497 1498 1497 1492 1484 1482 1480 1480 1479 1478 1477 1476 1475 1475 1473 1472 1471 1469 1468 1467 1465 1464 1462 1460 1459 1457 1456 1454 1453 1451 1450 1449 1448 1447 1446 1446 1445 1444 1444 1443 1443 1442 1442
1494 1492 1493 1492 1484 1480 1479 1478 1478 1477 1476 1475 1474 1473 1472 1470 1469 1468 1467 1465 1464 1462 1460 1459 1457 1455 1454 1452 1451 1450 1448 1447 1446 1445 1444 1444 1443 1442 1442 1442 1441 1441 1440 1440
1487 1488 1489 1487 1480 1478 1475 1475 1474 1474 1473 1472 1471 1470 1469 1467 1466 1465 1463 1462 1460 1459 1457 1455 1454 1452 1450 1449 1448 1446 1445 1444 1443 1442 1441 1441 1440 1440 1440 1439 1439 1439 1438 1438
1482 1483 1484 1480 1475 1475 1473 1471 1471 1470 1469 1468 1467 1466 1465 1465 1463 1462 1460 1459 1457 1455 1454 1452 1451 1449 1447 1446 1444 1443 1442 1441 1440 1439 1439 1438 1438 1437 1437 1437 1437 1437 1437 1437